Tracking 18945 objects as of 21-Jan-2018
HD Live streaming from Space Station
objects crossing your sky now

COSMOS 1691

Track COSMOS 1691 now!
10-day predictions
COSMOS 1691 is classified as:


NORAD ID: 16139
Int'l Code: 1985-094B
Perigee: 1,419.7 km
Apogee: 1,420.7 km
Inclination: 82.6 °
Period: 114.1 minutes
Semi major axis: 7791 km
RCS: 1.0877 m2 (large)
Launch date: October 9, 1985
Source: Commonwealth of Independent States (former USSR) (CIS)
Launch site: PLESETSK MISSILE AND SPACE COMPLEX (PKMTR)
aabbcc
Your satellite tracking list
Your tracking list is empty




NASA's NSSDC Master Catalog

Two Line Element Set (TLE):
1 16139U 85094B   18020.58601062 +.00000025 +00000-0 +82821-4 0  9997
2 16139 082.6108 080.2027 0000622 051.6126 119.0128 12.62394673487911
Source of the keplerian elements: AFSPC